Location: Bermeries
(50.2863°N, 3.7551°E)
Time: 13:45:43
(UTC+00:00)

H-2A R/B - Pass Details

Date: 23 May 2024
Orbit: 567 x 637 km, 98.4° (Epoch: 18 June)

Event Time Altitude Azimuth Distance (km) Brightness Sun altitude
Rises 00:30:51 0° 9° (N) 2,954 7.3 -18.2°
Reaches altitude 10° 00:33:10 10° 1° (N) 2,040 5.9 -18.2°
Maximum altitude 00:37:18 39° 293° (WNW) 963 3.1 -18.0°
Enters shadow 00:39:21 24° 242° (WSW) 1,309 3.3 -17.9°
